Arctic Village, AK

12:07 AM AKDT on May 26, 2017 (GMT -0800)
Arctic Village

Weather History for PARC - January, 2014

Change the Weather History Date:

Tuesday, January 7, 2014

  Actual Average Record
Temperature  
Mean Temperature 0 °F -  
Max Temperature 6 °F -8 °F 33 °F (2005)
Min Temperature -7 °F -28 °F -62 °F (1972)
Degree Days  
Heating Degree Days 66    
Moisture  
Dew Point -16 °F    
Average Humidity 49    
Maximum Humidity 100    
Minimum Humidity 25    
Precipitation  
Precipitation 0.00 in - - ()
Sea Level Pressure  
Sea Level Pressure 29.50 in    
Wind  
Wind Speed 1 mph (SSE)    
Max Wind Speed 8 mph    
Max Gust Speed -    
Visibility 8 miles    
Events      
Averages and records for this station are not official NWS values.
T = Trace of Precipitation, MM = Missing Value Source: NWS Daily Summary

Daily Weather History Graph

Daily Weather History Graph

Search for Another Location

Airport or City:

Trip Planner

Search our weather history database for the weather conditions in past years. The results will help you decide how hot, cold, wet, or windy it might be!

Date:

Astronomy

Jan. 07, 2014 Rise Set
Actual Time 12:01 PM AKST 1:36 PM AKST
Civil Twilight 9:52 AM AKST 3:45 PM AKST
Nautical Twilight 8:27 AM AKST 5:10 PM AKST
Astronomical Twilight 7:17 AM AKST 6:20 PM AKST
Moon 11:09 AM AKST (1/7) 12:51 AM AKST (1/7)
Length of Visible Light 5h 53m
Length of Day
1h 35m
Waxing Crescent, 47% of the Moon is Illuminated
Jan 7
Waxing Crescent
Jan 7
First Quarter
Jan 15
Full
Jan 23
Last Quarter
Jan 30
New

Hourly Weather History & Observations

Time (AKST) Temp. Windchill Dew Point Humidity Pressure Visibility Wind Dir Wind Speed Gust Speed Precip Events Conditions
12:16 AM 3.2 °F - - N/A% 29.59 in 2.0 mi Calm Calm - N/A   Overcast
12:36 AM 3.2 °F - -7.6 °F 61% 29.59 in 2.5 mi Calm Calm - N/A   Overcast
12:56 AM 3.2 °F - -20.2 °F 33% 29.58 in 3.0 mi Calm Calm - N/A   Overcast
1:16 AM 6.8 °F - -14.8 °F 37% 29.58 in 4.0 mi Calm Calm - N/A   Overcast
1:36 AM 5.0 °F - - N/A% 29.57 in 4.0 mi Calm Calm - N/A   Overcast
1:56 AM 6.8 °F - 1.4 °F 79% 29.57 in 3.0 mi Calm Calm - N/A   Overcast
2:16 AM 5.0 °F - -18.4 °F 33% 29.56 in 4.0 mi Calm Calm - N/A   Overcast
2:36 AM 6.8 °F - -18.4 °F 31% 29.56 in 5.0 mi Calm Calm - N/A   Overcast
2:56 AM 6.8 °F - 1.4 °F 79% 29.55 in 3.0 mi Calm Calm - N/A   Overcast
3:16 AM 6.8 °F - - N/A% 29.54 in 5.0 mi Calm Calm - N/A   Overcast
3:36 AM 6.8 °F - 3.2 °F 85% 29.54 in 5.0 mi Calm Calm - N/A   Overcast
3:56 AM 6.8 °F - -14.8 °F 37% 29.53 in 3.0 mi Calm Calm - N/A   Overcast
4:16 AM 6.8 °F - -18.4 °F 31% 29.53 in 3.0 mi Calm Calm - N/A   Overcast
4:36 AM 6.8 °F - -14.8 °F 37% 29.52 in 2.5 mi Calm Calm - N/A   Overcast
4:56 AM 6.8 °F - 1.4 °F 79% 29.51 in 3.0 mi Calm Calm - N/A   Overcast
5:16 AM 6.8 °F - - N/A% 29.51 in 3.0 mi Calm Calm - N/A   Overcast
5:36 AM 6.8 °F - - N/A% 29.50 in 3.0 mi Calm Calm - N/A   Overcast
5:56 AM 6.8 °F - -5.8 °F 56% 29.50 in 2.5 mi Calm Calm - N/A   Overcast
6:16 AM 6.8 °F - -16.6 °F 34% 29.49 in 4.0 mi Calm Calm - N/A   Overcast
6:36 AM 6.8 °F -0.1 °F -18.4 °F 31% 29.49 in 4.0 mi SW 3.5 mph - N/A   Overcast
6:56 AM 6.8 °F -0.1 °F -7.6 °F 52% 29.48 in 8.0 mi SW 3.5 mph - N/A   Partly Cloudy
7:16 AM 5.0 °F -2.1 °F - N/A% 29.48 in 10.0 mi WSW 3.5 mph - N/A   Clear
7:36 AM 5.0 °F -4.1 °F -0.4 °F 78% 29.48 in 10.0 mi SW 4.6 mph - N/A   Clear
7:56 AM 3.2 °F -6.2 °F -20.2 °F 33% 29.48 in 10.0 mi SSW 4.6 mph - N/A   Clear
8:16 AM 3.2 °F -9.1 °F -18.4 °F 36% 29.48 in 10.0 mi SW 6.9 mph - N/A   Clear
8:36 AM 3.2 °F -6.2 °F 3.2 °F 100% 29.48 in 10.0 mi SW 4.6 mph - N/A   Clear
8:56 AM 1.4 °F -6.2 °F 1.4 °F 100% 29.48 in 10.0 mi SSW 3.5 mph - N/A   Clear
9:16 AM 1.4 °F - -20.2 °F 36% 29.48 in 10.0 mi Calm Calm - N/A   Clear
9:36 AM 1.4 °F - -20.2 °F 36% 29.48 in 10.0 mi Calm Calm - N/A   Clear
9:56 AM 1.4 °F - - N/A% 29.47 in 10.0 mi Calm Calm - N/A   Clear
10:16 AM 1.4 °F - -14.8 °F 47% 29.47 in 10.0 mi Calm Calm - N/A   Clear
10:36 AM -0.4 °F -10.4 °F -25.6 °F 30% 29.48 in 5.0 mi WSW 4.6 mph - N/A   Partly Cloudy
10:56 AM -0.4 °F -10.4 °F - N/A% 29.48 in 10.0 mi SW 4.6 mph - N/A   Scattered Clouds
11:16 AM -2.2 °F - -14.8 °F 55% 29.48 in 10.0 mi Calm Calm - N/A   Clear
11:36 AM -0.4 °F - -20.2 °F 39% 29.48 in 10.0 mi Calm Calm - N/A   Partly Cloudy
11:56 AM -0.4 °F - - N/A% 29.48 in 10.0 mi Calm Calm - N/A   Mostly Cloudy
12:16 PM -0.4 °F - -29.2 °F 25% 29.48 in 10.0 mi Calm Calm - N/A   Mostly Cloudy
12:36 PM -5.8 °F - - N/A% 29.48 in 10.0 mi Calm Calm - N/A   Partly Cloudy
12:56 PM -4.0 °F -12.4 °F -20.2 °F 46% 29.47 in 10.0 mi ENE 3.5 mph - N/A   Mostly Cloudy
1:16 PM -2.2 °F -12.5 °F -25.6 °F 32% 29.48 in 10.0 mi NNE 4.6 mph - N/A   Overcast
1:36 PM -0.4 °F -8.3 °F -11.2 °F 60% 29.48 in 10.0 mi NNW 3.5 mph - N/A   Overcast
1:56 PM -0.4 °F - -29.2 °F 25% 29.48 in 10.0 mi Calm Calm - N/A   Overcast
2:16 PM 1.4 °F - - N/A% 29.48 in 10.0 mi Calm Calm - N/A   Overcast
2:36 PM 1.4 °F - -18.4 °F 39% 29.48 in 3.0 mi Calm Calm - N/A   Overcast
2:56 PM 1.4 °F - -25.6 °F 27% 29.48 in 10.0 mi Calm Calm - N/A   Overcast
3:16 PM 1.4 °F - - N/A% 29.49 in 10.0 mi Calm Calm - N/A   Overcast
3:36 PM 1.4 °F - -11.2 °F 56% 29.48 in 10.0 mi Calm Calm - N/A   Overcast
3:56 PM 1.4 °F - -25.6 °F 27% 29.48 in 10.0 mi Calm Calm - N/A   Overcast
4:16 PM 1.4 °F - - N/A% 29.48 in 10.0 mi Calm Calm - N/A   Overcast
4:36 PM 1.4 °F - -11.2 °F 56% 29.48 in 10.0 mi Calm Calm - N/A   Scattered Clouds
4:56 PM -0.4 °F - -27.4 °F 27% 29.48 in 10.0 mi Calm Calm - N/A   Clear
5:16 PM -0.4 °F - - N/A% 29.48 in 10.0 mi Calm Calm - N/A   Clear
5:36 PM -0.4 °F - -18.4 °F 43% 29.48 in 10.0 mi Calm Calm - N/A   Clear
5:56 PM -0.4 °F - -25.6 °F 30% 29.47 in 10.0 mi Calm Calm - N/A   Clear
6:16 PM -5.8 °F - -18.4 °F 55% 29.47 in 10.0 mi Calm Calm - N/A   Clear
6:36 PM -5.8 °F -14.5 °F - N/A% 29.46 in 10.0 mi ESE 3.5 mph - N/A   Clear
6:56 PM -5.8 °F - -23.8 °F 42% 29.46 in 10.0 mi Calm Calm - N/A   Clear
7:16 PM -7.6 °F - -13.0 °F 77% 29.47 in 10.0 mi Calm Calm - N/A   Clear
7:36 PM -5.8 °F - -14.8 °F 65% 29.48 in 9.0 mi Calm Calm - N/A   Clear
7:56 PM -4.0 °F - - N/A% 29.48 in 10.0 mi Calm Calm - N/A   Clear
8:16 PM -4.0 °F - - N/A% 29.48 in 10.0 mi Calm Calm - N/A   Clear
8:36 PM -5.8 °F -14.5 °F -18.4 °F 55% 29.48 in 10.0 mi SE 3.5 mph - N/A   Clear
8:56 PM -5.8 °F - -25.6 °F 38% 29.48 in 10.0 mi Calm Calm - N/A   Clear
9:16 PM -0.4 °F - -20.2 °F 39% 29.48 in 10.0 mi Calm Calm - N/A   Clear
9:36 PM -0.4 °F -8.3 °F -18.4 °F 43% 29.48 in 10.0 mi East 3.5 mph - N/A   Clear
9:56 PM -2.2 °F -12.5 °F - N/A% 29.48 in 10.0 mi ESE 4.6 mph - N/A   Clear
10:16 PM -2.2 °F -15.6 °F -27.4 °F 29% 29.48 in 10.0 mi ENE 6.9 mph - N/A   Clear
10:36 PM -0.4 °F -12.0 °F -5.8 °F 78% 29.49 in 10.0 mi East 5.8 mph - N/A   Clear
10:56 PM -4.0 °F -19.0 °F -16.6 °F 55% 29.49 in 10.0 mi East 8.1 mph - N/A   Clear
11:16 PM -2.2 °F -16.8 °F -27.4 °F 29% 29.50 in 10.0 mi East 8.1 mph - N/A   Clear
11:36 PM -0.4 °F -12.0 °F -0.4 °F 100% 29.51 in 10.0 mi ESE 5.8 mph - N/A   Clear
11:56 PM -4.0 °F -17.8 °F - N/A% 29.51 in 10.0 mi ENE 6.9 mph - N/A   Clear